Temp
11 11 10 10 10 11 10 11 11 12 12 11 11 11 11 12 11 11 11 12 12 13 13 14 15 16 16 18 15 15 16 17 17 18 20 22 23 24 24 23 23 24 21 21 19 19 19
11 11 11 11 11 10 11 11 11 11 11 12 11 11 11 13 13 12 11 12 13 13 14 15 15 16 16 15 15 16 16 16 17 19 19 20 20 22 21 21 21 22 21 20 19 20 19
11 11 12 11 11 10 11 11 11 12 12 11 12 11 11 13 12 11 12 13 14 14 15 16 15 16 16 14 16 16 17 16 16 18 18 17 18 21 22 19 20 21 21 19 19 20 19
10 11 12 12 13 12 12 12 12 12 12 12 12 12 13 12 12 13 13 14 14 14 16 16 16 17 15 15 16 16 17 18 17 17 17 17 19 18 18 19 20 20 21 21 19 19 17
12 12 13 13 13 13 13 13 13 13 13 13 13 13 13 13 13 13 14 14 14 15 16 16 16 18 16 16 16 16 16 17 18 17 18 18 19 18 18 19 20 20 21 22 19 19 18
13 13 13 13 13 14 14 14 14 14 13 13 13 14 13 13 14 14 14 14 16 17 17 16 18 18 17 16 15 16 16 17 19 19 19 19 18 18 18 18 18 20 21 22 22 18 18
12 12 13 13 13 13 14 14 13 14 14 14 14 14 14 14 14 14 14 15 16 16 16 16 17 16 17 16 16 17 16 17 19 21 19 18 13 15 16 17 19 19 19 20 21 18 16
12 12 12 12 13 13 13 14 14 14 14 14 15 15 15 15 15 15 15 16 13 14 15 17 17 16 16 15 18 16 17 19 20 17 19 18 14 16 17 17 18 19 18 19 19 19 17
11 11 12 12 12 13 13 14 14 14 14 15 15 15 16 15 14 14 13 12 12 13 17 16 17 16 15 17 16 15 16 18 18 18 17 16 16 16 17 18 18 19 18 16 15 16 18
11 11 11 12 12 12 13 13 14 14 15 15 15 15 16 16 15 15 13 12 13 13 15 16 17 16 17 17 15 16 15 16 18 17 17 15 15 17 17 18 17 18 16 16 15 13 12
11 11 11 11 12 12 12 13 13 14 14 14 15 15 15 15 15 14 12 13 13 13 15 16 17 17 17 17 16 16 16 18 17 16 16 15 16 16 17 16 16 16 15 15 15 12 14
10 11 11 11 11 11 12 13 13 14 14 14 15 15 15 15 15 12 13 13 13 13 14 13 17 17 18 18 17 17 18 17 17 18 16 15 15 16 15 16 15 15 15 15 15 12 11
11 10 11 11 11 11 12 12 13 14 14 14 14 15 15 14 13 13 13 13 12 15 15 16 16 18 18 17 18 18 18 17 17 13 10 16 16 15 15 15 15 15 10 11 12 13 13
10 10 10 11 11 12 12 13 13 13 14 14 14 15 14 13 13 13 13 16 14 17 16 16 17 17 18 17 17 18 18 16 17 17 14 13 12 15 15 15 15 16 14 11 14 13 12
10 11 11 11 12 13 13 13 13 13 14 14 14 14 13 13 13 13 14 13 14 16 17 17 16 18 17 17 17 18 18 17 16 16 16 16 14 15 15 15 15 15 13 15 13 17 13
10 11 12 12 12 13 13 13 14 14 14 14 15 15 13 14 14 13 14 14 14 15 16 17 18 17 19 18 17 18 18 17 15 16 16 16 14 15 14 14 14 14 15 13 11 14 15
8 9 10 11 13 13 12 13 14 14 14 14 14 16 14 14 13 15 13 14 15 15 15 16 17 18 18 18 17 19 18 16 17 15 15 16 15 14 14 13 14 13 13 14 14 14 14
9 10 10 12 13 13 12 13 14 14 15 14 15 15 15 14 15 16 14 15 13 15 15 16 16 17 17 17 18 18 18 16 16 16 16 14 14 11 16 14 14 14 16 16 11 16 14
9 9 11 12 12 12 13 13 13 14 14 14 15 15 15 13 15 14 14 14 15 15 15 16 16 16 16 17 16 17 16 14 15 15 14 15 14 10 14 13 14 13 15 15 15 12 12
9 10 10 11 11 11 12 13 14 13 14 14 14 14 15 15 15 16 16 15 14 14 15 15 15 15 16 16 16 15 16 14 14 15 13 13 14 13 11 14 15 14 14 14 13 9 12
9 10 10 10 11 11 12 12 13 14 14 14 13 12 12 14 14 15 16 16 15 15 14 15 15 15 16 16 16 15 16 14 13 12 13 13 12 13 12 13 13 12 13 14 11 13 12
9 9 10 10 11 11 11 12 13 14 15 14 13 13 13 14 14 15 13 15 16 15 15 15 14 16 16 15 16 16 16 15 16 12 13 13 11 13 10 13 13 12 13 14 14 14 14
10 10 10 10 10 10 10 10 11 13 14 14 13 12 12 12 15 15 14 15 15 15 15 15 15 15 14 15 14 14 14 14 15 14 12 12 11 11 10 14 13 12 14 14 14 14 14
9 10 10 10 10 9 10 10 10 11 12 11 10 11 13 15 15 15 15 14 14 15 14 15 14 14 12 13 13 13 12 12 13 13 13 13 12 11 9 11 11 16 14 14 14 16 14
9 9 10 10 9 9 9 10 10 10 11 10 9 10 12 13 15 15 15 14 14 13 12 14 14 12 12 12 12 13 12 12 12 10 11 12 12 10 10 11 13 14 13 14 14 14 14
9 9 9 9 9 10 10 10 9 9 10 10 9 9 11 11 13 14 14 15 13 14 13 13 12 12 12 12 13 13 14 16 11 9 10 10 11 10 11 11 12 15 13 14 13 12 12
10 10 10 9 9 9 9 9 9 9 9 9 9 9 9 11 13 13 13 12 14 13 12 13 11 11 11 11 11 12 13 14 14 12 8 9 9 9 10 10 12 15 12 13 12 12 13
9 9 9 9 9 8 9 9 8 9 9 9 8 9 8 9 11 11 12 12 12 12 12 12 12 10 10 10 11 12 12 13 12 14 11 10 9 9 10 11 10 13 12 12 12 13 14
10 10 9 9 9 8 9 9 8 8 8 8 8 8 8 8 9 9 10 10 10 10 10 12 12 11 12 11 11 11 11 11 12 12 14 11 13 12 12 12 13 14 14 13 13 12 12
Height
794 789 785 781 778 776 773 770 769 768 769 769 769 769 769 771 769 775 777 784 786 787 789 791 793 792 792 794 801 800 797 796 796 795 794 791 792 791 798 797 796 799 806 807 812 814 814
801 798 794 790 784 782 776 776 775 775 774 773 774 775 775 776 776 776 785 789 790 792 792 793 794 794 792 801 803 800 798 797 797 797 797 794 796 793 801 804 806 802 805 809 812 813 813
808 804 801 797 793 790 786 784 782 781 781 780 781 781 782 781 784 788 791 793 793 794 795 795 795 794 794 806 803 801 800 799 798 799 799 800 800 797 800 811 809 807 811 812 813 812 815
813 810 807 803 800 798 795 793 791 788 788 786 785 786 786 791 793 795 796 795 796 797 796 797 796 795 804 805 803 802 801 803 800 801 802 802 802 803 808 811 812 813 811 816 816 813 818
818 815 812 809 805 803 802 800 798 797 796 796 794 794 794 794 795 796 796 797 797 797 796 798 797 795 807 805 804 804 805 804 803 803 803 802 802 808 812 816 819 814 820 810 820 814 816
822 820 817 814 812 809 807 807 804 803 802 800 800 799 799 799 798 798 799 798 798 797 798 799 798 800 807 809 806 806 805 804 803 804 803 803 807 814 817 824 839 825 819 809 812 819 815
826 824 821 818 816 814 811 810 810 807 804 803 802 801 801 800 800 800 800 799 800 803 804 806 805 806 807 809 806 807 806 805 803 803 810 811 829 836 830 828 825 825 823 820 808 817 823
830 827 824 821 818 817 814 812 811 809 806 805 803 802 802 801 800 801 799 799 806 808 812 809 808 809 809 808 806 809 806 806 803 816 810 820 839 833 828 828 827 824 826 823 816 815 823
833 831 828 825 821 819 816 814 811 810 807 805 804 802 801 801 800 800 800 805 806 807 805 813 811 811 813 810 814 815 811 809 812 818 819 826 834 829 829 827 826 822 828 835 841 827 814
836 833 830 828 825 821 819 815 813 810 808 807 805 802 801 801 803 802 805 806 806 805 813 818 813 814 813 812 819 817 817 818 818 824 823 832 832 830 830 827 831 828 831 833 834 843 850
837 835 833 830 827 823 820 817 814 811 808 806 805 804 803 803 802 804 807 805 805 807 828 819 815 814 812 814 817 818 816 812 819 823 825 834 833 832 830 834 832 834 834 836 837 847 840
840 837 835 832 829 825 821 817 814 811 809 808 806 804 802 802 803 806 805 806 808 823 836 830 817 815 813 811 814 814 815 816 819 818 823 833 833 833 835 833 834 834 835 835 835 846 857
843 840 837 834 831 827 822 818 814 811 809 808 807 806 804 803 807 806 805 807 827 825 826 824 820 812 812 817 816 815 815 821 824 842 856 833 834 836 836 837 836 836 857 861 858 846 846
845 843 839 835 832 828 824 819 815 811 809 808 807 807 806 806 806 806 807 809 829 819 820 821 818 816 816 821 820 818 818 825 824 823 838 845 855 835 836 836 837 834 838 861 857 858 852
848 845 842 838 834 830 826 822 817 812 809 808 809 809 809 808 806 806 809 828 827 819 816 819 820 816 820 820 821 818 817 822 828 829 834 833 840 837 835 834 838 835 845 838 850 829 852
851 847 844 841 837 833 828 823 818 814 810 809 809 809 810 808 807 808 813 825 826 824 821 818 816 819 814 819 822 819 819 824 830 829 828 829 842 833 838 837 837 838 836 849 858 853 844
855 852 847 843 839 835 831 825 820 815 811 810 809 809 810 808 808 808 823 827 825 825 824 823 818 817 816 817 820 817 822 830 826 831 829 829 835 841 836 840 834 844 841 840 841 841 847
857 854 851 847 843 839 834 828 822 816 812 811 810 813 810 809 812 809 823 821 827 825 824 823 822 821 821 821 820 821 822 827 826 827 830 835 836 851 827 831 831 832 827 828 856 834 840
858 856 853 850 846 842 837 831 826 820 814 813 813 812 811 810 819 824 825 827 825 826 826 824 825 825 824 823 828 825 826 832 830 830 835 833 837 860 837 838 834 837 829 829 828 845 847
859 856 854 851 848 845 840 835 829 823 819 816 816 823 815 813 816 816 820 824 828 830 828 828 827 826 826 826 827 829 828 832 833 831 836 836 836 838 850 833 830 834 829 829 835 862 837
862 859 855 852 849 846 843 838 833 827 821 819 820 830 832 828 823 821 820 821 826 828 829 829 828 829 826 828 828 830 827 832 835 837 836 837 842 835 835 831 830 832 829 827 837 827 831
863 861 857 854 851 847 845 842 837 831 826 825 829 832 830 827 826 823 828 825 824 828 828 829 832 825 827 830 827 827 827 827 825 837 835 836 844 832 841 823 824 825 817 816 815 814 814
862 861 859 855 852 849 845 844 841 836 832 833 834 833 832 833 824 825 829 827 827 828 827 828 828 829 830 829 829 828 827 826 826 829 836 837 842 842 841 819 823 823 801 800 804 801 805
860 859 859 857 853 852 847 845 844 842 839 840 840 839 832 827 827 827 828 829 828 828 831 828 829 829 834 830 827 826 829 829 828 828 828 831 837 841 848 831 834 795 794 794 795 791 795
858 857 856 856 854 852 850 847 844 844 844 842 842 841 838 835 827 826 828 828 826 827 832 828 827 831 831 831 831 825 829 830 829 835 835 834 838 844 844 834 811 794 798 796 794 793 790
853 854 854 853 852 853 851 848 847 844 844 844 844 843 841 840 833 831 831 828 832 825 828 828 831 832 831 830 829 830 821 809 830 841 839 839 838 846 835 837 818 789 793 791 795 804 794
848 848 849 851 850 849 849 848 846 846 844 843 844 844 844 841 831 831 831 833 829 829 829 828 832 835 833 831 833 830 822 813 817 822 845 843 843 840 837 835 814 784 793 793 801 800 793
842 844 844 845 846 845 846 846 845 844 844 844 842 842 844 842 835 833 833 832 832 831 831 831 831 833 837 837 831 822 820 814 817 807 821 828 834 838 831 826 820 789 796 797 794 789 789
837 837 838 839 840 841 841 842 843 842 842 844 844 841 842 844 837 833 832 831 832 833 833 828 828 827 826 827 824 825 823 820 813 814 801 815 803 807 807 797 784 785 785 786 785 786 786
Wind_Speed
37 36 34 29 25 25 20 15 16 17 17 16 17 19 19 22 26 22 18 12 13 15 14 10 7 1 4 5 6 12 11 8 6 5 5 2 4 1 1 4 4 2 4 4 4 1 4
36 37 36 38 40 35 30 20 17 17 20 19 19 21 26 30 25 19 11 11 12 9 10 6 3 4 6 5 6 10 10 9 7 3 6 7 6 5 7 5 5 3 4 5 3 2 4
30 31 34 33 35 36 36 31 26 21 23 21 24 21 22 22 11 10 10 8 6 6 5 2 2 4 16 4 6 10 9 11 10 4 4 5 4 4 2 3 4 1 2 4 4 1 2
28 29 30 32 32 34 32 33 28 25 23 21 21 18 19 18 15 12 5 5 6 6 7 5 4 5 5 2 7 12 6 9 11 10 10 6 7 6 4 2 2 3 0 2 2 1 2
26 27 27 28 31 28 29 30 26 23 21 20 17 15 13 10 7 6 8 9 8 6 5 3 6 4 5 1 3 9 8 4 5 7 6 4 3 3 2 1 1 3 3 2 3 3 2
24 23 24 22 21 19 22 25 24 19 18 16 14 11 9 7 7 8 10 6 15 13 4 2 3 3 3 2 3 5 5 5 2 1 2 4 3 3 4 2 1 4 3 3 4 3 1
22 21 21 20 19 18 17 18 17 11 14 13 11 10 8 11 10 4 2 4 2 4 15 7 7 9 5 1 3 8 6 6 2 2 2 2 7 5 6 6 3 3 5 7 3 5 5
20 20 20 19 18 17 15 13 14 13 14 14 10 8 4 3 5 2 2 3 3 2 8 8 9 7 5 3 2 12 13 1 1 4 1 4 4 4 2 3 4 1 6 4 3 2 5
20 20 20 19 19 18 16 14 13 12 12 14 13 10 2 5 9 11 12 6 4 2 2 4 2 4 3 7 5 7 10 4 5 5 5 5 4 2 2 3 5 4 3 4 2 8 4
19 19 20 19 19 19 18 17 14 12 10 11 13 11 5 3 4 3 4 2 3 3 3 6 3 4 1 2 3 3 3 0 1 4 6 5 2 2 1 1 4 2 4 4 6 6 3
20 20 20 20 20 20 20 19 17 13 9 10 12 9 9 2 4 3 1 3 3 2 4 4 3 2 4 3 2 2 2 3 5 4 3 1 2 0 3 3 5 3 4 4 2 4 3
20 20 21 21 22 22 22 20 18 14 9 8 10 12 4 4 8 3 2 2 2 4 1 2 2 0 4 4 2 3 2 4 3 3 7 4 2 3 5 1 2 5 5 5 2 1 2
20 21 21 22 23 24 25 22 19 15 9 7 7 12 11 5 2 3 2 1 5 3 2 0 2 2 4 3 3 4 2 4 2 4 3 3 4 3 2 4 5 2 4 2 5 2 4
20 21 22 23 24 25 28 25 20 17 8 5 6 7 12 10 4 3 1 1 5 1 3 1 1 2 1 2 2 2 3 4 3 3 2 4 3 3 3 2 2 2 1 4 3 2 4
18 20 22 24 25 27 29 30 24 19 8 5 5 6 3 13 4 2 2 4 2 3 2 4 2 3 2 2 1 3 3 3 4 5 1 1 2 3 1 2 3 1 1 1 1 1 2
18 20 21 23 25 27 30 32 30 22 7 4 2 1 2 11 3 1 3 3 2 3 3 2 2 2 3 4 3 3 3 2 4 3 5 2 1 1 4 3 2 2 1 1 2 2 4
17 20 21 22 25 28 31 34 34 27 12 4 1 2 6 6 3 1 3 3 4 2 4 4 5 0 4 2 4 1 4 1 2 3 4 2 2 1 1 5 4 2 2 2 1 2 2
15 18 19 20 23 26 29 32 35 31 19 6 3 1 7 2 2 2 3 3 2 2 1 1 2 4 5 3 0 1 2 5 4 0 3 3 3 3 2 4 5 3 3 6 3 1 3
15 17 17 18 21 24 27 30 34 32 23 5 3 1 3 3 3 3 2 3 4 1 1 1 2 2 2 2 1 3 2 1 1 2 3 2 2 3 2 2 1 3 4 4 3 3 5
14 15 16 18 20 23 26 28 31 32 20 4 2 3 3 3 1 2 2 3 3 2 2 2 2 2 1 3 2 1 2 2 3 2 3 3 3 4 5 2 1 4 5 7 6 3 4
14 15 15 16 18 21 24 27 30 29 18 6 3 2 1 3 4 4 2 2 3 2 0 1 2 4 3 1 1 2 0 4 3 4 2 1 3 3 7 9 7 8 10 9 11 12 5
11 14 15 15 16 18 22 25 27 27 14 8 3 3 1 1 2 4 2 3 2 2 2 3 2 3 3 3 4 2 1 3 1 4 3 4 3 3 5 11 10 10 14 15 17 16 15
11 11 13 15 17 18 20 22 24 25 15 8 5 1 1 1 2 3 2 3 4 3 3 2 4 3 5 3 6 5 5 7 4 5 6 5 2 3 5 3 7 9 6 12 7 5 10
13 12 12 14 16 17 16 17 19 20 17 7 5 5 2 1 1 3 1 1 1 1 3 3 2 3 2 5 7 5 4 6 7 7 4 2 3 2 4 6 3 5 2 3 6 5 9
16 15 14 15 16 15 17 15 14 15 14 9 7 4 3 3 3 2 1 3 4 6 4 3 1 3 4 3 3 4 2 1 2 5 5 4 2 3 3 3 9 2 2 3 3 5 3
19 17 16 16 16 15 15 15 13 10 10 6 8 7 3 2 3 4 4 2 4 4 4 4 2 1 2 1 1 2 3 1 3 2 0 3 3 3 2 3 5 1 4 3 5 4 5
19 19 19 21 19 16 16 15 11 10 7 4 3 7 4 2 1 0 1 2 2 2 3 4 4 2 3 2 3 4 4 1 4 5 5 3 3 10 7 4 7 2 7 3 3 4 5
20 20 20 20 21 18 17 16 11 9 7 2 2 4 1 3 4 3 2 3 2 2 2 1 0 0 2 2 2 4 3 3 1 2 5 7 7 4 4 5 9 6 5 3 1 2 2
26 26 25 24 23 21 18 18 12 9 6 3 2 1 0 3 4 5 12 14 7 7 2 2 1 1 3 3 2 2 2 2 3 3 2 4 6 4 8 6 3 6 3 5 3 6 4
Wind_Direction
44 45 46 47 40 49 55 67 70 82 73 87 99 99 98 83 111 99 90 133 138 138 140 140 168 186 275 82 45 349 5 13 29 32 24 297 229 74 175 97 190 96 129 94 86 352 301
47 54 50 52 57 49 49 72 69 68 70 94 89 93 100 105 96 80 97 131 132 148 152 161 228 292 255 79 343 2 19 35 45 33 41 16 9 360 45 34 8 49 122 85 92 343 281
48 54 55 58 57 54 68 64 71 77 82 92 90 97 98 101 99 115 136 141 144 161 166 189 254 127 54 91 15 23 43 49 56 43 86 42 341 30 344 109 321 96 194 175 178 62 346
42 51 58 66 64 70 62 71 74 71 75 75 85 88 99 123 132 135 143 150 172 149 123 124 240 339 75 31 58 37 51 57 53 73 95 84 73 92 38 137 190 252 264 237 121 333 118
46 50 57 69 64 63 57 60 68 69 72 74 75 86 100 107 125 129 116 110 123 122 63 327 308 227 97 5 46 28 38 39 69 58 75 68 57 99 170 273 229 217 276 201 149 115 345
43 48 53 57 59 57 50 66 67 45 55 62 70 73 80 101 119 115 119 123 87 46 346 318 330 85 37 55 15 2 13 15 25 242 136 35 43 64 18 28 338 338 358 337 287 119 358
43 44 45 48 52 53 49 55 63 63 41 46 48 59 90 118 123 141 306 247 199 48 43 46 48 79 83 316 69 32 356 326 230 267 101 36 63 68 53 12 335 1 316 291 339 82 346
38 41 41 39 42 44 43 38 36 34 35 40 36 45 52 256 239 326 343 45 44 81 83 48 97 80 75 340 64 22 2 295 261 72 86 69 98 62 6 304 283 301 294 346 317 86 327
37 35 36 36 32 31 31 26 21 24 22 26 30 26 96 72 83 69 92 82 101 30 138 69 51 49 346 346 43 10 355 337 38 65 52 114 92 124 302 253 342 110 30 16 281 309 252
38 37 34 33 30 27 23 18 15 9 16 22 25 32 104 102 84 104 59 47 52 29 108 4 19 55 324 340 85 17 9 341 57 79 74 82 82 342 307 79 341 305 31 335 317 5 288
38 36 34 32 30 26 21 16 11 10 14 23 27 34 58 101 116 61 60 33 21 24 85 6 37 322 285 69 160 78 317 318 50 108 114 209 144 96 275 40 344 32 354 326 313 307 328
37 36 34 30 28 26 22 15 12 12 17 31 41 34 58 56 55 61 25 21 54 43 68 13 301 246 169 55 81 152 117 69 333 95 57 81 24 337 20 40 344 316 265 248 159 276 24
36 34 34 33 28 24 21 18 16 13 11 24 38 41 53 58 71 9 18 258 35 65 259 79 49 18 52 36 82 13 47 62 18 52 13 172 141 115 290 251 200 281 45 347 355 355 221
36 33 30 29 26 24 21 18 16 11 13 22 35 39 38 39 18 11 5 59 69 46 81 60 182 194 74 331 116 157 206 153 70 324 181 167 315 192 153 329 308 20 282 134 213 326 287
28 32 28 25 24 24 21 19 15 14 33 36 51 46 35 351 359 52 271 53 65 49 66 158 189 225 118 140 334 242 29 54 51 9 324 344 161 140 311 351 337 155 30 12 36 258 7
19 23 22 21 20 20 19 18 16 13 16 32 40 214 30 359 12 322 69 103 100 5 325 306 300 316 154 133 221 225 153 14 117 9 328 63 289 191 123 235 163 338 6 19 354 34 292
13 12 14 16 16 16 14 14 15 12 10 25 114 262 346 352 353 303 78 63 109 82 348 346 17 50 15 90 329 90 78 77 8 129 316 357 123 163 79 199 162 152 212 228 33 180 228
5 8 11 13 13 13 12 11 11 11 11 19 297 39 344 356 60 12 53 40 323 120 238 45 301 6 13 24 201 45 25 63 43 35 360 52 330 262 172 69 31 337 305 186 131 221 237
14 8 10 12 11 10 10 9 9 11 10 7 349 11 356 35 59 86 162 97 20 151 64 343 104 351 353 29 316 26 67 30 113 292 15 95 251 333 324 48 120 264 216 258 338 56 229
10 5 4 5 7 7 8 9 7 7 10 18 341 355 345 61 253 45 117 99 106 38 42 347 36 293 264 197 104 51 204 112 41 358 34 13 290 218 206 159 151 221 218 202 192 167 228
342 355 1 4 5 6 7 7 7 6 5 18 17 56 39 350 32 20 338 350 125 158 332 321 204 282 324 309 215 223 17 151 183 143 204 252 261 269 283 292 278 254 249 232 213 224 220
325 335 345 353 356 0 4 7 8 9 15 44 13 4 210 43 290 290 126 63 339 115 209 159 243 95 221 266 32 359 2 197 248 150 217 176 281 316 287 262 248 262 251 239 239 242 246
297 310 322 334 339 347 358 2 7 13 28 37 6 270 244 214 315 297 50 48 49 351 117 332 327 321 226 306 4 342 328 307 292 182 200 176 229 1 268 325 318 282 254 231 211 208 225
276 290 305 316 322 333 346 358 3 11 28 17 5 304 320 331 311 48 22 21 317 24 326 76 319 283 62 314 297 244 256 269 275 265 236 210 207 223 276 310 248 258 89 244 241 196 207
263 272 288 302 310 320 329 339 353 2 11 33 7 355 347 302 11 238 258 246 244 198 205 239 226 64 342 309 299 280 179 276 197 22 329 252 287 278 247 264 286 177 210 171 135 252 186
265 268 272 284 295 303 307 313 328 345 1 23 356 8 309 319 53 11 321 346 315 300 153 172 112 63 241 242 263 258 255 304 188 151 119 302 243 253 235 239 255 125 146 56 73 259 123
264 266 273 278 282 283 288 291 300 316 339 11 341 8 316 297 347 17 280 331 5 315 288 136 144 178 335 216 215 219 237 113 220 193 168 164 209 220 229 265 279 192 145 158 160 216 190
267 271 275 281 282 276 275 274 272 290 303 309 260 342 54 308 295 197 262 239 215 228 268 144 323 14 148 265 246 245 230 211 327 159 177 173 174 195 194 229 250 114 102 205 77 353 255
261 265 270 274 277 269 260 254 251 262 274 260 229 299 87 243 269 292 272 265 277 308 327 246 226 86 226 219 268 340 304 249 242 259 174 215 200 195 193 217 141 182 248 238 258 235 258